User: anonymous   Login
Location: �chenoz-la-M�line
(47.6009°N, 6.1354°E)
Time: 02:55:48
(UTC+00:00)
Language:

Cosmos 1184 Rocket - Orbit

View from above orbital plane
View from above orbital plane
View from above satellite
View from above satellite

Ground track
Ground track

The orbit data is extracted from the following two-line orbital elements,

1 11822U 80044B   21102.59761218  .00003936  00000-0  63284-4 0  9993
2 11822  81.2279 328.9990 0011083  86.6170 273.6346 15.52614479249196
Epoch (UTC): 12 April 2021 14:20:33
Eccentricity: 0.0011083
inclination: 81.2279°
perigee height: 401 km
apogee height: 416 km
right ascension of ascending node: 328.9990°
argument of perigee: 86.6170°
revolutions per day: 15.52614479
mean anomaly at epoch: 273.6346°
orbit number at epoch: 24919

The dashed part of the orbit path shows where the satellite is in the earth's shadow,  

DLR